Location: Dannhausen
(51.8650°N, 10.1026°E)
Time: 05:21:00
(UTC+00:00)

X-37B - Visible Passes

Search period start: 02 August 2021 00:00
Search period end: 12 August 2021 00:00
Orbit: 383 x 392 km, 45.0° (Epoch: 01 July)

Date Brightness Start Highest point End Pass type
(mag) Time Alt. Az. Time Alt. Az. Time Alt. Az.
04 Aug 2.9 02:15:59 11° S 02:16:56 12° SSE 02:18:19 10° SE visible
05 Aug 2.3 02:52:22 10° SW 02:54:43 20° SSE 02:57:09 10° ESE visible
06 Aug 2.5 01:56:30 16° SSE 01:56:34 16° SSE 01:58:40 10° ESE visible
07 Aug 2.0 02:32:54 17° SSW 02:34:24 23° S 02:37:00 10° ESE visible
08 Aug 2.5 01:37:06 18° SE 01:37:06 18° SE 01:38:40 10° ESE visible
08 Aug 2.0 03:09:42 10° WSW 03:12:17 23° S 03:14:54 10° SE visible
09 Aug 1.8 02:13:38 23° SSW 02:14:06 24° S 02:16:45 10° SE visible
10 Aug 3.1 01:18:00 13° SE 01:18:00 13° SE 01:18:31 10° ESE visible
10 Aug 2.1 02:50:18 14° SW 02:51:59 20° SSW 02:54:26 10° SE visible
11 Aug 2.3 01:54:51 19° SSE 01:54:51 19° SSE 01:56:24 10° SE visible
